sat.trackr.live / text

‹ back to catalog

COSMOS 2515

NORAD 41394 · 2016-020A

PAYLOAD ACTIVE UNKNOWN

§ Identity

Operator
Country
CIS
Launch date
2016-03-24
Launch site
PLMSC
Launch vehicle
Mass (kg)
RCS (m²)
5.62

External: N2YO · Heavens-Above · Gunter

§ Orbital elements

Epoch: 2026-09-10T04:22:02.544960Z

Period
95.48 min
Inclination
97.9765°
Eccentricity
0.0024006
Mean motion
15.08172588 rev/d
Perigee alt
525.2 km
Apogee alt
558.4 km
Semi-major
6,919.9 km
B*
1.0074e-4
RAAN
271.8692°
Arg perigee
18.3917°
Mean anomaly
341.8173°
Rev number
57,322

§ Raw data

COSMOS 25151 41394U 16020A   26253.18197390  .00001497  00000+0  10074-3 0  99912 41394  97.9765 271.8692 0024006  18.3917 341.8173 15.08172588573223

JSON: /api/v1/satellites/41394 · /tle

For live sub-satellite position, see the globe view (requires WebGL).

§ Visibility from observer

Set your observer location to see the next 7 days of passes ≥ 10°. The values pass through the URL so the page stays shareable.

No JS? Fill the form by hand. The geolocation button needs JavaScript.